Showing default

O3B FM9, 40351

Orbit data source: Space-Track

O3B FM9, 40351 is a payload satellite owned by O3B (JE) that was launched on Thu, 18 Dec 2014 UTC via a SOYUZ-ST-B launch vehicle from the French Guiana (FRGUI). Payload-class satellites include a variety of spacecraft equipped with specific instruments for various scientific and technological missions. These include communications satellites like Starlink; space stations such as the ISS; scientific satellites like the Hubble; Earth observation satellites from companies like Planet Labs, Umbra, and HawkEye 360; GPS; miniature CubeSats for education and research; and military/defense satellites.

Loading next visibility...
Identifier
40351, 2014-083D
Orbit
Active
Last TLE update
20 hours ago
Origin
Manufacturer
Thales Alenia
Mission
Operational Commercial Communications
Bus & Motor
PRISMA?, LS-400 AOCS?
Mass
700 kg wet, ~500 kg dry
Launch date (UTC)
2014-12-18 (11 years ago)
Launch vehicle
SOYUZ-ST-B
Launch site
French Guiana (FRGUI)
Object type
Payload
Rocket body
Debris
Shape & HBR
Trap Box + 2 Pan, 12 m
Radar Cross Section
21.980 m², Large (>1 m²)

Expand to show TLE details & history

TLE from 20 hours ago
0 O3B FM9
1 40351U 14083D   25181.41869043 -.00000025  00000-0  00000-0 0  9999
2 40351   0.0428   0.2126 0002719  99.1837 260.6314  5.00115677192473
Epoch: 2025-06-30T10:02Z
TLE epoch observation values (Epoch: 2025-06-30T10:02:54.853Z)
Latitude
-0.00152°
Longitude
-69.45743°
Altitude
8,065.009 km
Speed
5.254 km/s
True Right ascension
23h 59m 59s
True Declination
0° 00' 05"
Sunlit
Object was in daylight at epoch
Visualization orbit readout
Latitude
0.0461°
Longitude
13.48231°
Altitude
8,060.602 km
Speed
5.256 km/s
Apparent Right ascension
05h 38m 29s
Apparent Declination
-11° 52' 12"
Sunlit
Object is in daylight
Visualization observer readout
Local Sidereal Time
17:58:21
Azimuth
10.265° NNE
Elevation
-61.612°
Doppler factor
1
Orbital elements
Apogee altitude
8,072.873 km
Perigee altitude
8,065.017 km
Semi-major axis
14,447.082 km
Eccentricity
0.00027
Inclination
0.0428°
RAAN
0.2126°
Arg. of periapsis
99.1837°
True anomaly
Unknown
Mean anomaly
260.6314°
Eccentric anomaly
Unknown
Mean motion
1.24989 °/min
Orbital period
288.02 mins
BSTAR
0
Loading maneuver chart data...
Loading SW <> Apogee altitude chart data...
Loading historical data...
Loading historical data...
Loading historical data...
Loading historical data...
Loading historical data...
Loading historical data...
Loading historical data...
Other satellites on launch #83 in the year 2014 (2014-12-18 UTC)

O3B FM9 Visibility forecast

Observer location: undefined°, undefined°

Span
Click to sort rows by Start time (UTC) header in descending order
Start Az.
Max El. time (UTC)
Max El. Az.
Max El.
End time (UTC)
End Az.
79 mins2025-07-01 08:47:34.920Z232.241° WSW2025-07-01 09:27:34.920Z179.469° S24.343°2025-07-01 10:06:34.920Z128.024° SE
78 mins2025-07-01 14:48:34.920Z231.318° WSW2025-07-01 15:27:34.920Z179.478° S24.397°2025-07-01 16:06:34.920Z127.963° SE
78 mins2025-07-01 20:48:34.920Z231.331° WSW2025-07-01 21:27:34.920Z179.41° S24.394°2025-07-01 22:06:34.920Z127.968° SE
78 mins2025-07-02 02:48:34.920Z231.26° WSW2025-07-02 03:27:34.920Z179.402° S24.34°2025-07-02 04:06:34.920Z128.028° SE
|